Goodland, KS

11:01 PM MST on February 20, 2017 (GMT -0700)
Renner-Goodland Municipal

Weather History for KGLD - March, 2014

Change the Weather History Date:

Tuesday, March 18, 2014

  Actual Average Record
Temperature  
Mean Temperature 36 °F 41 °F  
Max Temperature 45 °F 55 °F 88 °F (1907)
Min Temperature 26 °F 27 °F -5 °F (1896)
Degree Days  
Heating Degree Days 29 24  
Month to date heating degree days 462 472  
Since 1 July heating degree days 5006 4889  
Cooling Degree Days 0 0  
Month to date cooling degree days 0 0  
Year to date cooling degree days 0 0  
Moisture  
Dew Point 27 °F    
Average Humidity 66    
Maximum Humidity 100    
Minimum Humidity 31    
Precipitation  
Precipitation 0.23 in 0.04 in 0.94 in (1984)
Month to date precipitation 0.31 0.56  
Year to date precipitation 1.25 1.43  
Snow  
Snow 2.50 in 0.20 in - ()
Month to date snowfall 3.1 3.6  
Since 1 July snowfall 28.3 27.6  
Snow Depth 0.00 in    
Sea Level Pressure  
Sea Level Pressure 29.72 in    
Wind  
Wind Speed 25 mph (NNW)    
Max Wind Speed 41 mph    
Max Gust Speed 50 mph    
Visibility 6 miles    
Events Fog , Snow    
T = Trace of Precipitation, MM = Missing Value Source: NWS Daily Summary

Daily Weather History Graph

Daily Weather History Graph

Search for Another Location

Airport or City:

Trip Planner

Search our weather history database for the weather conditions in past years. The results will help you decide how hot, cold, wet, or windy it might be!

Date:

Astronomy

Mar. 18, 2014 Rise Set
Actual Time 6:53 AM MDT 6:56 PM MDT
Civil Twilight 6:26 AM MDT 7:23 PM MDT
Nautical Twilight 5:55 AM MDT 7:54 PM MDT
Astronomical Twilight 5:23 AM MDT 8:26 PM MDT
Moon 9:15 PM MDT (3/18) 7:44 AM MDT (3/18)
Length of Visible Light 12h 57m
Length of Day
12h 03m
Waning Gibbous, 96% of the Moon is Illuminated
Mar 18
Waning Gibbous
Mar 23
Last Quarter
Mar 30
New
Apr 7
First Quarter
Apr 15
Full

Hourly Weather History & Observations

Time (MDT) Temp. Windchill Dew Point Humidity Pressure Visibility Wind Dir Wind Speed Gust Speed Precip Events Conditions
12:53 AM 45.0 °F 35.6 °F 21.0 °F 39% 29.31 in 10.0 mi NW 27.6 mph 35.7 mph N/A   Clear
1:53 AM 44.1 °F 35.2 °F 16.0 °F 32% 29.31 in 10.0 mi NNW 23.0 mph 29.9 mph N/A   Clear
2:53 AM 43.0 °F 33.5 °F 18.0 °F 37% 29.31 in 10.0 mi NNW 24.2 mph 34.5 mph N/A   Clear
3:53 AM 43.0 °F 33.5 °F 17.1 °F 35% 29.34 in 10.0 mi NW 24.2 mph 28.8 mph N/A   Clear
4:53 AM 41.0 °F 30.7 °F 15.1 °F 35% 29.35 in 10.0 mi NW 25.3 mph 32.2 mph N/A   Clear
5:53 AM 39.9 °F 30.8 °F 14.0 °F 35% 29.38 in 10.0 mi NW 18.4 mph - N/A   Scattered Clouds
6:53 AM 39.9 °F 30.0 °F 18.0 °F 41% 29.42 in 10.0 mi NW 21.9 mph 32.2 mph N/A   Overcast
7:53 AM 39.0 °F 29.3 °F 19.9 °F 46% 29.44 in 10.0 mi NW 19.6 mph - N/A   Scattered Clouds
8:53 AM 41.0 °F 30.0 °F 24.1 °F 51% 29.46 in 10.0 mi NW 28.8 mph 36.8 mph N/A   Clear
9:53 AM 41.0 °F 29.7 °F 28.9 °F 62% 29.50 in 10.0 mi NNW 31.1 mph 36.8 mph N/A   Scattered Clouds
10:03 AM 39.0 °F 26.6 °F 30.0 °F 70% 29.55 in 10.0 mi NNW 33.4 mph 40.3 mph N/A   Mostly Cloudy
10:28 AM 37.0 °F 24.5 °F 30.0 °F 76% 29.57 in 10.0 mi NNW 29.9 mph 38.0 mph N/A   Overcast
10:53 AM 36.0 °F 22.8 °F 28.9 °F 76% 29.57 in 10.0 mi North 31.1 mph 38.0 mph N/A   Overcast
11:01 AM 36.0 °F 23.9 °F 28.0 °F 73% 29.58 in 10.0 mi North 25.3 mph 39.1 mph N/A   Overcast
11:53 AM 35.1 °F 21.4 °F 28.0 °F 76% 29.62 in 10.0 mi North 32.2 mph 42.6 mph N/A   Overcast
12:53 PM 34.0 °F 19.7 °F 28.9 °F 82% 29.67 in 10.0 mi NNW 33.4 mph 41.4 mph 0.00 in   Overcast
1:44 PM 33.1 °F 19.6 °F 30.9 °F 92% 29.68 in 2.5 mi NNW 27.6 mph 36.8 mph 0.00 in Snow Light Snow
1:51 PM 33.8 °F 20.3 °F 30.2 °F 87% 29.68 in 2.5 mi NNW 28.8 mph 36.8 mph 0.00 in Snow Light Snow
1:53 PM 33.1 °F 19.3 °F 30.9 °F 92% 29.70 in 3.0 mi North 28.8 mph 38.0 mph 0.00 in Snow Light Snow
2:09 PM 33.1 °F 18.2 °F 30.9 °F 92% 29.70 in 2.5 mi NNW 34.5 mph 42.6 mph 0.00 in Snow Light Snow
2:24 PM 33.1 °F 18.7 °F 30.9 °F 92% 29.71 in 1.2 mi NNW 32.2 mph 42.6 mph 0.00 in Snow Light Snow
2:33 PM 33.1 °F 18.9 °F 30.9 °F 92% 29.72 in 0.8 mi NNW 31.1 mph 42.6 mph 0.00 in Snow Light Snow
2:53 PM 32.0 °F 16.2 °F 30.9 °F 96% 29.76 in 0.2 mi NNW 38.0 mph 47.2 mph 0.00 in Fog , Snow Heavy Snow
3:53 PM 32.0 °F 17.0 °F 30.9 °F 96% 29.83 in 0.2 mi NNW 33.4 mph 42.6 mph 0.02 in Fog , Snow Heavy Snow
4:07 PM 32.0 °F 16.7 °F 30.9 °F 96% 29.83 in 0.5 mi NNW 34.5 mph 40.3 mph 0.00 in Fog , Snow Snow
4:15 PM 32.0 °F 17.4 °F 30.9 °F 96% 29.84 in 0.2 mi NNW 31.1 mph 41.4 mph 0.00 in Fog , Snow Heavy Snow
4:22 PM 32.0 °F 17.2 °F 30.9 °F 96% 29.84 in 0.5 mi NNW 32.2 mph 42.6 mph 0.00 in Fog , Snow Snow
4:35 PM 32.0 °F 16.7 °F 30.0 °F 92% 29.86 in 0.2 mi North 34.5 mph 50.6 mph 0.00 in Fog , Snow Snow
4:53 PM 32.0 °F 18.1 °F 32.0 °F 100% 29.90 in 0.2 mi North 27.6 mph 39.1 mph 0.02 in Fog , Snow Heavy Snow
5:18 PM 32.0 °F 17.9 °F 30.9 °F 96% 29.89 in 0.5 mi North 28.8 mph 35.7 mph 0.02 in Fog , Snow Light Snow
5:24 PM 33.1 °F 18.4 °F 30.9 °F 92% 29.88 in 1.2 mi NNW 33.4 mph 40.3 mph 0.02 in Snow Light Snow
5:44 PM 33.1 °F 17.6 °F 28.9 °F 85% 29.91 in 0.8 mi NNW 38.0 mph 48.3 mph 0.02 in Snow Light Snow
5:53 PM 32.0 °F 16.2 °F 28.9 °F 88% 29.95 in 0.5 mi North 38.0 mph 48.3 mph 0.02 in Fog , Snow Light Snow
6:14 PM 34.0 °F 20.5 °F 27.0 °F 75% 29.92 in 1.8 mi North 28.8 mph 43.7 mph 0.00 in Snow Light Snow
6:18 PM 34.0 °F 20.8 °F 26.1 °F 73% 29.92 in 6.0 mi North 27.6 mph 40.3 mph 0.00 in   Haze
6:53 PM 34.0 °F 21.8 °F 28.9 °F 82% 29.97 in 8.0 mi NW 23.0 mph 33.4 mph 0.00 in Snow Light Snow
7:53 PM 33.1 °F 21.9 °F 30.0 °F 89% 30.01 in 10.0 mi NW 18.4 mph - 0.00 in   Clear
8:53 PM 32.0 °F 20.5 °F 28.0 °F 85% 30.04 in 10.0 mi NW 18.4 mph - N/A   Clear
9:53 PM 32.0 °F 20.1 °F 27.0 °F 82% 30.07 in 10.0 mi NW 19.6 mph - N/A   Clear
10:53 PM 30.0 °F 18.7 °F 26.1 °F 85% 30.10 in 10.0 mi NW 16.1 mph - N/A   Clear
11:53 PM 30.0 °F 19.1 °F 26.1 °F 85% 30.11 in 10.0 mi NW 15.0 mph - N/A   Clear